Theta_e
297 298 298 297 297 298 297 298 294 297 298 301 304 306 307 307 305 307 309 314 317 320 322 324 325 325 325 325 323 322 318 315 312 310 309 309 311 309 306 303 301 300 299 296
295 298 297 295 297 298 298 298 299 299 298 305 308 308 306 305 306 308 309 311 313 315 316 315 317 320 319 318 316 317 315 312 309 309 308 306 303 302 302 299 300 298 299 299
291 296 296 290 296 298 299 301 301 297 302 306 305 305 306 306 307 307 308 308 309 309 310 311 313 315 314 313 313 312 310 307 305 303 301 301 301 300 299 301 300 299 298 298
292 290 286 297 302 303 300 302 303 303 304 305 305 306 305 307 307 305 305 305 306 307 308 309 310 311 311 311 309 308 306 304 302 302 301 301 301 300 300 299 298 297 296 297
292 290 295 295 297 299 298 299 304 303 304 304 303 303 301 305 307 305 305 305 305 306 306 307 307 307 307 306 305 304 302 302 302 302 301 301 299 299 299 297 295 297 298 298
291 289 287 297 302 305 303 295 305 304 303 303 303 298 303 302 302 302 303 303 303 304 304 304 304 305 304 303 302 301 301 301 302 302 301 300 298 295 294 296 298 297 296 296
294 293 296 302 302 303 293 297 305 305 305 304 301 305 306 303 301 302 301 301 302 303 302 303 304 304 302 301 300 301 301 301 300 299 296 294 293 296 297 297 295 295 293 294
295 292 289 302 300 298 305 306 307 306 307 305 306 304 302 301 299 299 299 299 301 300 300 302 303 302 300 299 300 300 298 295 293 294 294 294 294 294 294 294 292 292 293 292
297 298 306 305 306 307 309 308 306 307 307 307 302 301 300 299 298 298 299 299 300 299 299 300 301 300 298 297 298 297 295 294 293 293 293 293 293 293 293 292 291 290 289 289
298 303 304 306 307 306 306 307 307 308 307 305 302 301 299 298 298 298 298 298 299 297 296 295 296 295 295 294 294 293 292 292 292 291 291 291 291 289 288 287 286 285 284 284
301 304 302 305 307 308 305 305 305 306 307 304 303 300 299 297 297 297 297 297 297 295 294 292 292 291 292 293 293 291 290 289 289 288 286 286 285 285 284 284 282 282 282 282
299 306 305 308 310 310 306 304 304 305 304 304 302 299 299 297 297 296 295 295 294 293 291 289 289 288 289 291 291 289 286 285 284 285 285 284 284 284 280 279 279 279 278 278
304 303 304 301 302 307 306 304 304 303 304 301 301 299 298 296 296 293 294 293 291 289 288 287 286 286 286 286 285 284 283 283 283 283 283 282 282 282 281 282 279 278 277 277
302 300 300 298 299 299 301 301 300 301 301 300 299 298 296 294 292 292 291 291 289 287 285 284 284 282 283 283 283 282 281 278 282 282 282 281 281 280 280 279 278 279 278 276
301 299 299 298 297 296 296 297 296 296 296 295 296 294 292 290 290 289 288 286 286 285 284 283 281 280 282 282 281 281 281 280 281 281 279 278 279 279 278 277 277 277 277 277
296 296 296 295 294 293 294 294 293 291 292 291 291 291 290 289 287 286 283 283 281 280 281 278 278 279 281 281 280 280 278 275 276 279 278 277 277 276 276 276 275 275 275 275
294 293 293 292 292 292 292 293 291 290 289 289 288 286 286 283 282 280 279 279 277 276 277 277 277 278 278 278 278 279 279 277 273 277 276 275 275 275 274 274 273 273 273 273
299 298 297 295 293 292 290 290 290 288 286 285 284 283 282 281 279 278 277 276 276 275 275 276 276 276 276 276 276 276 275 275 275 274 275 274 272 273 273 272 272 271 272 272
296 295 294 293 293 291 289 287 286 284 283 283 282 281 280 280 279 277 276 275 274 273 274 275 274 275 274 273 274 274 273 273 273 273 272 270 272 271 271 271 270 270 270 270
289 289 288 287 288 286 283 283 283 282 282 282 280 279 277 277 277 277 277 276 277 276 275 274 274 273 272 271 271 273 272 272 271 271 270 270 270 269 270 268 268 269 269 269
284 284 283 282 282 283 283 283 282 282 282 282 280 278 277 276 276 276 275 273 274 275 274 273 274 273 273 272 272 272 272 271 271 270 270 269 268 268 268 268 268 267 267 267
283 282 282 283 283 282 282 282 281 280 280 278 277 277 275 275 275 275 276 276 275 274 275 274 273 270 271 269 272 272 271 270 270 269 269 268 267 266 266 266 266 266 266 266
283 282 282 280 279 279 280 279 279 279 278 277 277 278 277 277 277 276 273 275 275 274 275 274 270 268 266 272 272 271 270 268 268 268 268 267 266 266 265 265 264 264 264 264
281 280 280 281 281 280 278 278 278 278 277 277 277 277 277 276 276 277 276 274 272 273 273 271 270 266 266 271 270 269 268 268 268 267 267 264 266 265 265 264 263 263 263 263
281 281 280 279 278 277 278 278 277 277 277 276 276 276 277 277 278 276 275 273 271 272 272 267 265 264 269 269 268 267 267 268 267 267 266 266 265 264 264 264 262 262 261 261
278 277 277 278 278 278 278 277 276 276 277 276 276 276 276 275 274 274 273 272 271 269 271 271 270 269 269 268 267 267 266 267 266 266 265 264 264 264 263 262 261 261 261 261
275 275 275 275 275 275 275 276 275 274 275 276 274 275 275 274 273 272 271 271 271 270 270 270 269 268 267 267 267 267 266 266 265 264 263 264 263 263 262 261 260 260 259 259
Wind_Speed
18 16 15 16 14 15 16 17 13 12 16 12 12 11 6 4 4 5 7 7 7 7 6 6 7 7 6 7 6 7 7 7 7 6 6 6 7 7 7 9 10 11 10 8
13 13 14 16 17 18 19 17 14 16 18 11 13 6 7 5 7 8 8 7 7 7 7 8 7 8 8 9 8 8 9 9 9 9 9 9 10 10 11 11 11 9 10 8
13 9 8 6 16 16 16 14 15 16 16 14 10 12 10 6 9 11 13 12 11 11 10 10 10 10 10 10 10 11 11 11 10 11 11 11 11 12 12 11 8 6 4 3
5 4 8 7 2 17 19 15 15 16 16 14 12 3 5 7 11 13 13 12 11 9 10 11 11 12 12 12 12 12 12 12 11 12 12 12 12 11 9 6 4 2 2 5
5 9 9 5 6 9 12 16 14 18 18 10 5 10 6 5 11 12 11 10 10 10 11 11 11 12 13 13 13 12 12 11 11 11 12 11 10 7 5 3 0 5 4 5
4 7 8 9 11 10 4 16 9 12 14 11 14 10 8 13 12 12 12 11 11 12 12 12 12 12 14 14 13 13 12 12 12 10 9 8 6 4 2 3 2 3 4 5
11 7 6 3 10 11 10 14 5 7 9 12 15 6 17 17 13 12 12 13 12 12 12 12 12 13 15 15 14 13 12 12 11 10 8 6 4 3 3 3 3 4 4 6
9 7 12 12 11 12 12 3 7 8 9 14 9 12 17 17 15 14 15 14 13 13 13 12 12 13 15 14 12 12 11 11 9 7 5 4 4 3 3 3 4 5 4 6
9 7 4 20 15 17 6 7 7 10 10 14 14 16 17 17 16 15 15 14 13 14 15 12 12 12 14 12 11 11 10 9 8 7 6 5 4 5 4 5 5 5 5 6
2 10 12 12 16 6 10 9 6 8 14 18 19 19 18 17 16 15 15 15 15 16 15 14 11 11 12 11 10 10 10 9 7 6 5 5 3 4 4 4 5 5 6 6
11 13 6 11 15 15 10 6 7 9 15 20 20 20 18 17 17 15 15 15 14 14 14 14 12 11 10 9 9 9 8 7 6 5 5 4 5 5 4 6 6 5 5 6
8 13 7 15 7 14 14 13 10 13 16 17 19 21 18 17 16 16 17 16 14 15 15 14 13 12 10 8 7 8 7 6 4 4 4 4 3 2 11 5 3 5 7 7
8 2 4 3 4 4 12 11 10 12 15 19 18 17 20 18 17 15 16 16 16 16 15 13 12 11 9 8 8 7 7 6 5 3 3 3 3 3 4 4 5 3 3 8
3 4 3 5 2 5 7 11 6 10 12 14 17 17 17 17 17 16 15 14 15 15 14 13 12 11 8 8 9 9 9 5 4 4 4 3 3 4 4 4 5 5 4 7
5 1 3 7 8 9 8 14 13 12 12 15 15 17 17 20 17 16 15 14 13 12 11 11 11 10 8 7 8 7 6 5 4 3 4 3 3 3 3 4 5 5 6 6
5 4 4 5 8 13 13 13 12 15 14 13 15 17 18 18 18 17 15 12 11 9 9 8 9 8 7 6 7 6 7 6 4 3 2 3 3 4 4 4 5 5 6 7
7 6 8 9 9 12 11 11 14 12 16 16 14 17 19 19 17 15 15 15 13 9 8 7 8 8 6 6 5 4 4 5 3 2 3 3 4 4 4 5 5 6 6 6
7 1 5 11 12 13 12 12 13 14 16 18 16 16 16 14 15 14 14 13 11 10 8 7 6 7 6 6 5 5 4 3 3 3 3 3 4 4 5 5 6 7 7 7
4 5 7 9 11 13 14 13 14 15 15 15 15 14 14 14 15 14 13 11 10 10 7 7 7 6 7 7 4 4 4 3 2 3 3 3 3 4 5 5 6 7 8 8
10 11 13 14 13 14 15 14 16 15 14 15 15 14 14 13 13 12 10 8 6 7 8 7 6 6 6 6 4 4 3 3 3 2 3 4 4 5 5 5 7 7 7 8
11 11 13 15 14 15 14 14 15 15 13 13 14 13 13 12 10 10 10 7 8 8 8 6 4 4 4 3 1 3 2 2 2 3 3 3 4 5 5 6 7 7 8 8
10 12 14 14 15 16 15 14 15 13 14 14 13 12 13 12 10 9 7 7 7 6 4 4 4 5 4 2 2 1 2 2 3 3 3 3 4 5 6 6 7 7 8 9
13 14 15 15 15 16 16 15 13 13 13 11 11 11 10 7 6 5 6 5 6 5 4 4 6 4 1 2 2 2 3 3 3 3 4 4 5 5 6 7 7 8 8 9
15 15 15 15 14 16 17 14 14 14 13 13 12 9 8 6 6 6 7 8 8 5 4 4 3 3 4 2 3 3 4 4 4 4 5 5 5 5 6 7 7 8 9 10
14 14 14 14 14 11 13 12 12 12 12 11 10 8 7 5 3 5 5 5 6 2 3 4 3 2 3 3 3 4 4 5 5 5 6 6 6 6 7 7 8 8 9 9
14 12 12 15 11 9 8 7 8 7 6 6 6 5 5 5 5 5 4 4 3 2 2 1 1 2 3 4 4 5 5 6 5 5 6 7 7 7 7 8 8 9 9 9
13 14 11 11 11 10 9 9 8 8 7 6 5 4 4 3 4 3 3 3 2 2 2 2 3 3 4 5 5 5 5 5 5 6 7 8 7 7 7 8 8 9 9 9
Wind_Direction
241 250 244 238 235 215 220 231 245 252 250 254 269 254 247 152 182 188 184 186 181 178 151 129 125 121 116 90 105 112 110 111 111 113 122 140 145 124 125 130 125 131 119 118
230 239 232 237 239 245 228 246 255 262 265 261 263 237 234 194 179 166 147 142 132 121 111 96 96 92 94 92 91 98 102 100 108 113 101 101 106 110 113 112 113 121 121 139
237 222 232 256 238 232 227 221 226 252 267 268 249 236 232 188 165 150 136 126 115 104 95 91 89 96 95 93 95 94 96 96 99 103 106 108 113 118 111 105 103 116 118 173
218 175 228 237 230 224 231 235 237 257 266 261 273 245 182 172 152 141 133 124 115 108 101 95 96 97 102 98 96 97 98 102 111 114 112 114 110 110 108 105 102 99 227 234
178 213 260 173 184 185 201 243 237 253 267 250 188 147 153 159 146 134 124 116 111 110 108 106 102 103 102 100 100 99 100 105 109 116 120 122 122 119 102 70 260 242 266 280
172 222 225 233 189 194 212 268 263 253 259 206 174 211 180 162 145 135 130 127 126 121 116 112 110 113 109 104 101 100 104 107 112 112 111 105 80 78 92 215 318 327 318 307
212 239 245 196 153 159 207 260 171 222 239 192 200 242 132 144 143 137 130 128 126 120 113 113 118 116 107 105 102 105 104 99 90 81 84 99 132 127 45 17 333 332 308 314
211 217 242 148 142 206 227 183 201 202 205 199 172 132 140 144 144 142 135 134 129 123 118 117 118 115 110 107 109 106 103 100 103 106 98 83 69 55 24 4 335 321 326 311
211 211 168 183 211 216 217 217 194 201 177 179 153 156 153 148 146 144 140 139 137 128 120 115 115 116 113 113 118 117 110 105 104 99 89 67 44 27 6 350 343 337 324 325
225 242 232 209 232 236 210 209 186 200 175 164 162 158 156 151 149 150 149 145 137 132 125 117 111 108 112 114 117 116 114 111 106 82 81 62 61 29 16 7 350 341 340 336
244 260 282 253 235 222 203 204 188 188 176 175 159 161 158 155 156 155 148 144 143 132 127 120 115 108 109 117 123 118 110 98 90 75 51 59 60 32 37 60 13 347 5 346
231 247 231 262 253 199 206 208 194 175 170 170 166 159 160 159 158 154 151 144 140 133 127 121 114 111 108 105 112 118 109 96 62 77 68 39 35 115 118 101 47 43 18 357
246 147 238 347 347 254 203 179 182 186 177 165 162 158 159 153 155 146 146 143 139 132 126 124 120 111 100 90 90 90 96 96 106 78 67 47 20 4 338 139 153 166 5 344
201 149 222 201 269 165 159 122 145 156 155 158 152 151 147 145 138 143 141 133 131 131 130 128 120 109 106 106 106 105 102 66 82 70 58 37 21 0 346 344 329 333 0 347
190 274 356 107 122 103 124 126 144 144 143 143 144 142 141 143 138 129 123 125 123 122 120 120 113 106 102 101 96 93 85 69 59 62 61 35 12 349 346 332 333 329 328 328
150 141 144 169 159 141 142 141 153 141 138 140 139 142 136 127 125 119 112 107 109 108 93 94 101 92 94 101 101 105 100 67 35 50 43 23 5 346 343 336 336 336 330 337
159 178 169 173 167 140 142 149 143 147 133 136 127 123 125 120 114 109 102 98 96 107 112 107 99 91 83 82 90 88 79 89 37 40 35 12 349 344 340 339 333 328 325 348
292 126 168 162 152 137 139 142 135 131 127 125 121 118 117 115 112 110 106 104 110 105 101 98 101 92 78 73 66 77 77 67 46 39 11 8 350 342 340 335 328 325 324 331
331 98 110 128 135 134 129 124 114 110 111 115 117 110 106 109 115 114 116 123 122 117 114 113 103 97 86 65 70 68 63 54 53 49 7 352 336 344 335 334 328 323 326 326
63 77 91 92 95 102 100 101 106 102 103 104 102 99 98 99 106 121 129 107 95 110 122 118 106 96 94 80 43 75 59 50 31 20 33 340 351 333 330 319 319 322 324 323
72 78 83 83 86 87 94 100 100 98 98 99 104 106 109 113 112 116 124 118 121 117 111 113 87 90 75 88 71 60 46 24 5 346 349 347 328 326 323 322 322 321 321 316
71 78 81 85 83 81 79 86 90 92 93 90 96 105 112 114 107 87 58 114 120 135 113 99 84 51 66 293 29 0 355 344 329 323 334 333 329 321 319 319 318 319 314 310
74 77 74 73 80 84 80 75 76 84 93 99 105 110 109 107 112 126 122 110 122 115 106 87 103 112 125 288 332 323 317 303 308 322 321 316 309 310 313 315 319 308 307 308
74 73 79 86 87 84 82 80 84 84 85 86 86 92 104 106 90 75 90 93 106 113 75 99 119 124 282 316 309 318 307 314 308 306 307 301 293 302 302 308 303 305 302 301
73 74 72 74 77 79 85 87 88 85 86 85 83 81 76 47 68 114 109 102 115 134 105 110 134 193 285 301 310 314 315 316 323 316 304 301 299 296 297 301 302 302 306 296
66 66 64 63 67 73 74 77 79 76 85 86 75 69 72 76 94 109 100 98 99 91 40 75 309 283 294 295 313 315 317 316 306 299 305 296 291 292 292 299 301 299 300 301
57 57 63 60 53 52 54 55 65 60 47 44 72 64 73 91 96 108 103 97 66 41 10 349 310 312 321 323 311 313 311 307 314 313 308 301 296 292 297 300 301 302 301 297